Location: Hains Lake
(37.8540°N, 99.8578°W)
Time: 21:15:31
(UTC+00:00)

deb Explorer IX - Pass Details

Date: 19 April 2021
Orbit: 541 x 1098 km, 38.8° (Epoch: 13 May)

Event Time Altitude Azimuth Distance (km) Brightness Sun altitude
Rises 14:46:43 0° 258° (WSW) 2,780 ? 32.1°
Reaches altitude 10° 14:48:52 10° 258° (WSW) 1,932 ? 32.6°
Maximum altitude 14:53:18 89° 177° (S) 659 ? 33.4°
Drops below altitude 10° 14:58:30 10° 80° (E) 2,240 ? 34.4°
Sets 15:01:09 0° 81° (E) 3,264 ? 34.9°
